Regional Weather Roundup
Issued by NWS

Current Version | Previous Version | Text Only | Print | Product List | Glossary On
Versions: 1 2 3 4 5 6 7 8 9 10 11 12 13 14 15 16 17 18 19 20 21 22 23 24 25 26 27 28 29 30 31 32 33 34 35 36 37 38 39 40 41 42 43 44 45 46 47 48 49 50
000
ASHW40 PHFO 280210
RWRHI

WEATHER ROUNDUP FOR HAWAII
NATIONAL WEATHER SERVICE HONOLULU HI
400 PM HST MON APR 27 2015

THIS IS AN AUTOMATED REPORT THAT HAS NOT BEEN QUALITY CONTROLLED.

NOTE..."FAIR" INDICATES FEW OR NO CLOUDS BELOW 12,000 FEET WITH NO
SIGNIFICANT WEATHER AND/OR OBSTRUCTIONS TO VISIBILITY.

* - THESE SITES REPORT LIMITED FIELDS

HIZ001>004-280300-
KAUAI-NIIHAU-

CITY           SKY/WX    TMP DP  RH WIND       PRES   REMARKS
LIHUE APT      CLOUDY    78  63  59 NE20      30.09F
PORT ALLEN*      N/A     82 N/A N/A NE22G31     N/A
POIPU*           N/A     81 N/A N/A NE12G22     N/A
PRINCEVILLE*     N/A     75 N/A N/A MISG        N/A
KOKOLE POINT*  NOT AVBL
MOLOAA DAIRY*  NOT AVBL
WAIMEA HTS*    NOT AVBL
PUU OPAE*      NOT AVBL
PUU LUA*       NOT AVBL
MAKAHA RIDGE*  NOT AVBL
$$

HIZ005>011-280300-
OAHU-

CITY           SKY/WX    TMP DP  RH WIND       PRES   REMARKS
HONOLULU       PTSUNNY   76  63  64 NE15G29   30.02S
KALAELOA       MOSUNNY   82  62  50 VRB5      30.03F
KANEOHE MCB    CLOUDY    78  65  63 NE14      30.03F
WHEELER FIELD  FAIR      76  61  60 NE14      30.05
BELLOWS*       NOT AVBL
KAHUKU*        NOT AVBL
WHEELER*       NOT AVBL
WAIANAE HARBOR NOT AVBL
DILLINGHAM*      N/A     82  61  47 MISG        N/A
KAHUKU TRN*      N/A     75  63  64 E13G25      N/A
KAWAILOA*        N/A     72  63  73 NE14G24     N/A
KII*             N/A     77  66  69 NE17G25     N/A
MAKUA RANGE*     N/A     81  59  47 E16G29      N/A
OAHU FOREST NW NOT AVBL
SCHOFIELD BRK*   N/A     72  61  68 MISG        N/A
SCHOFIELD S*   NOT AVBL
WAIANAE VLY*   NOT AVBL
KUAOKALA*      NOT AVBL
HONOULIUULI*   NOT AVBL
MOKUOLOE IS*   NOT AVBL
PALEHUA*       NOT AVBL
WAIAWA PHB*    NOT AVBL
$$

HIZ012>013-280300-
MOLOKAI-

CITY           SKY/WX    TMP DP  RH WIND       PRES   REMARKS
MOLOKAI AIRPT  LGT RAIN  72  68  88 N17G28    30.03F
KALAUPAPA      NOT AVBL
MAKAPULAPAI*   NOT AVBL
MOLOKAI 1*     NOT AVBL
PUU ALII*      NOT AVBL
$$

HIZ016-280300-
KAHOOLAWE-

CITY           SKY/WX    TMP DP  RH WIND       PRES   REMARKS
KAHOOLAWE*     NOT AVBL
HAKIOAWA*      NOT AVBL
HONOKANAIA*      N/A     78  69  73 VRB20G39  30.01F
KANELOA*         N/A     73  70  88 MISG      29.23F
KEALIALALO*    NOT AVBL
LUA MAKIKA*    NOT AVBL
$$

HIZ014>015-280300-
LANAI-

CITY           SKY/WX    TMP DP  RH WIND       PRES   REMARKS
LANAI CITY     PTSUNNY   72  66  81 NE28G41   30.04R
LANAI 1*       NOT AVBL
$$

HIZ017>028-280300-
MAUI-

CITY           SKY/WX    TMP DP  RH WIND       PRES   REMARKS
KAHULUI        CLOUDY    75  67  76 NE21G29   30.04S
KAPALUA-W MAUI LGT RAIN  72  68  88 NE16G29   30.04
HANA AIRPORT   LGT RAIN  73  68  83 NE16      30.07S
HANA*          NOT AVBL
HALEAKALA SUMM   N/A     46  46 100 N10G23      N/A
MAALAEA BAY*   NOT AVBL
HALEAKALA*     NOT AVBL
KAUPO GAP*     NOT AVBL
KULA 1*          N/A     60  60 100 NW5         N/A
$$

HIZ023>026-280300-
BIG ISLAND OF HAWAII COAST AND LOWER SLOPES-

CITY           SKY/WX    TMP DP  RH WIND       PRES   REMARKS
KAILUA KONA    PTSUNNY   80  70  71 S13       29.97F
HILO           PTSUNNY   81  68  64 NE9       30.02S
HONOKAA*       NOT AVBL
KAWAIHAE MWT*  NOT AVBL
KAWAIHAE*      NOT AVBL
SOUTH POINT*   NOT AVBL
UPOLU AIRPORT* NOT AVBL
KAMUELA*       MOCLDY    72  63  73 NE29      30.07S
HAKALAU*         N/A     55  55  98 NE3         N/A
KALOKO-HONOKO* NOT AVBL
PALI 2*          N/A     75  57  53 N18G29      N/A
KEALAKOMO*       N/A     82  68  61 E20G32      N/A
KAUPULEHU*     NOT AVBL
KAPAPALA*        N/A     71  66  83 SE3G9       N/A
LOWER KAHUKU*  NOT AVBL
PUHE CS*       NOT AVBL
PUHO CS*       NOT AVBL
PTA KEAMUKU*     N/A     70  59  68 CALM        N/A
WAIKOLOA*      NOT AVBL
$$

HIZ027>028-280300-
BIG ISLAND OF HAWAII INTERIOR AND SUMMMITS-

CITY           SKY/WX    TMP DP  RH WIND       PRES   REMARKS
BRADSHAW FIELD PTSUNNY   65  54  67 SE13G20   30.29S
MK VISITOR CEN NOT AVBL
MAUNA KEA*       N/A     41  30  65 E1          N/A
MAUNA LOA*       N/A     46  39  76 MISG        N/A
MAUNA LOA 1*   NOT AVBL
PTA KIPUKA*      N/A     59  59 100 NW6G15      N/A
PTA RANGE 17*    N/A     64  61  88 W8G18       N/A
PTA WEST*        N/A     72  64  78 NW13G23     N/A
NENE CABIN*    NOT AVBL
AHUMOA*        NOT AVBL
PTA PORTABLE*  NOT AVBL
PUU MALI*        N/A     63  48  59 E18G26      N/A
$$

HIC003-280300-
NORTHWEST ISLANDS-

CITY           SKY/WX    TMP DP  RH WIND       PRES   REMARKS
MIDWAY ISLAND  MOSUNNY   72  59  64 E18G25    30.30F
MIDWAY NOS*    NOT AVBL
FRENCH FRIGATE NOT AVBL
$$

PHZ110>124-180-280300-
BUOY REPORTS

STATION/POSITION TIME  TEMP    WIND        PRES    WAVE   SWELL
                       AIR SEA DIR/SP/G            HT/PER HT/DIR
                 (UTC) (F)     (DEG/KT/KT) (MB)    (FT/S) (FT/D)
BUOY 51001       NOT AVBL
BUOY 51101       0200   72 76   70/ 21/ 27 1020.7F  14/11  10/ 10
BUOY 51100       0200   72      70/ 21     1020.8F
BUOY 51002       0200   79 79   80/ 14/ 16 1014.1F   7/12   7/350
BUOY 51003       0100   78 79   80/ 19/ 21 1015.9F  11/12   8
BUOY 51004       0124   77 78   60/ 12/ 16 1014.9F   6/ 8   5/110
BARBERS PT BUOY  NOT AVBL
WAIMEA BAY BUOY  0200      77                N/A    10/13   7/340
KAILUA BAY BUOY  0200      77                N/A    11/13   8/350
LANAI BUOY       0100      78                N/A     4/13   2/290
BARBERS PT 2     0200      78                N/A     6/11   5/320
PAUWELA MAUI     0200      77                N/A    11/13   7/340
HILO             0200      78                N/A     7/13
KANEOHE BAY BUOY 0200      77                N/A    10/13   7/350
HANALEI KAUAI    0200      78                N/A    15/12  10/360
KAHULUI HARBOR   0200   74 77   50/ 12/ 20 1017.1S
HONOLULU HARBOR  0200   79 78   60/ 11/ 17 1016.5S
KILO NALU        NOT AVBL
HILO HARBOR      0200   79 77   30/  9/ 11 1016.2S
MOKUOLOE         0200      78              1017.9S
NAWILIWILI       0200   76 77   30/ 15/ 21 1018.4S
WHOTS BUOY       NOT AVBL
BUOY 51028       NOT AVBL
$$

......................KEY........................................
  SKY/WX - SKY CONDITIONS/PRESENT WEATHER
  TMP    - TEMPERATURE IN FAHRENHEIT
  DWPT   - DEWPOINT IN FAHRENHEIT
  RH     - RELATIVE HUMIDITY IN PERCENT
  WIND   - DIRECTION AND SPEED /MPH FOR ISLANDS...KTS FOR BUOYS/
  PRES   - MEAN SEA LEVEL PRESSURE IN INCHES OF HG
  VSB    - VISIBILITY IN MILES
  HX     - HEAT INDEX
  WCI    - WIND CHILL INDEX
  VRB    - VARIABLE WIND DIRECTION
  N/A    - NOT AVAILABLE


USA.gov is the U.S. government's official web portal to all federal, state and local government web resources and services.